Location: Trois-Rivi�res
(46.3500°N, 72.5500°W)
Time: 01:55:08
(UTC-05:00)

Vanguard 2 Rocket - All Passes

Search period start: 18 December 2017 00:00
Search period end: 28 December 2017 00:00
Orbit: 556 x 3326 km, 32.9° (Epoch: 16 December)

Date Brightness Start Highest point End Pass type
(mag) Time Alt. Az. Time Alt. Az. Time Alt. Az.
18 Dec - 00:44:11 10° W 00:57:26 24° SW 01:11:03 10° S night (unlit)
18 Dec - 17:03:39 10° SSW 17:11:22 28° SE 17:23:01 10° E visible
18 Dec - 19:14:07 10° WSW 19:25:02 47° S 19:42:02 10° ESE visible
18 Dec - 21:27:01 10° WSW 21:40:43 46° SSW 21:59:07 10° SE visible
18 Dec - 23:42:29 10° W 23:56:37 30° SSW 00:12:21 10° SSE visible
19 Dec - 16:06:27 10° S 16:12:11 19° SE 16:20:03 10° E daylight
19 Dec - 18:15:26 10° SW 18:24:47 41° SSE 18:39:48 10° E visible
19 Dec - 20:27:30 10° WSW 20:39:43 48° S 20:57:42 10° ESE visible
19 Dec - 22:41:42 10° W 22:55:39 36° SSW 23:12:39 10° SSE visible
20 Dec - 01:01:00 10° WSW 01:10:45 16° SW 01:20:52 10° SSW night (unlit)
20 Dec - 15:11:54 10° SE 15:13:22 10° SE 15:14:55 10° ESE daylight
20 Dec - 17:17:11 10° SW 17:25:01 34° SSE 17:37:26 10° E visible
20 Dec - 19:28:20 10° WSW 19:39:02 47° S 19:55:52 10° ESE visible
20 Dec - 21:41:34 10° W 21:54:38 40° SSW 22:12:10 10° SE visible
20 Dec - 23:58:06 10° W 00:10:09 22° SW 00:23:31 10° S visible
21 Dec - 16:19:26 10° SSW 16:25:42 25° SE 16:35:00 10° E daylight
21 Dec - 18:29:32 10° WSW 18:38:44 44° S 18:53:46 10° ESE visible
21 Dec - 20:41:57 10° WSW 20:53:45 43° S 21:11:02 10° SE visible
21 Dec - 22:56:47 10° W 23:09:22 28° SSW 23:24:35 10° SSE visible
22 Dec - 15:22:35 10° S 15:26:46 16° SE 15:32:10 10° ESE daylight
22 Dec - 17:31:05 10° SW 17:38:53 38° SSE 17:51:37 10° ESE visible
22 Dec - 19:42:42 10° WSW 19:53:07 44° S 20:09:27 10° ESE visible
22 Dec - 21:56:23 10° W 22:08:32 33° SSW 22:24:38 10° SSE visible
23 Dec - 00:15:23 10° WSW 00:23:40 15° SW 00:32:40 10° SSW night (unlit)
23 Dec - 16:33:00 10° SSW 16:39:26 30° SSE 16:49:29 10° E visible
23 Dec - 18:43:49 10° WSW 18:52:49 43° S 19:07:35 10° ESE visible
23 Dec - 20:56:34 10° WSW 21:07:47 37° SSW 21:23:56 10° SE visible
23 Dec - 23:12:41 10° WSW 23:23:05 20° SW 23:35:20 10° S visible
24 Dec - 15:35:27 10° SSW 15:40:22 21° SSE 15:47:20 10° ESE daylight
24 Dec - 17:45:14 10° SW 17:52:53 39° S 18:05:36 10° ESE visible
24 Dec - 19:57:14 10° WSW 20:07:15 39° S 20:22:42 10° SE visible
24 Dec - 22:11:39 10° WSW 22:22:26 25° SSW 22:36:17 10° SSE visible
25 Dec - 14:39:09 10° SSE 14:41:36 12° SE 14:44:28 10° ESE daylight
25 Dec - 16:46:56 10° SW 16:53:22 33° SSE 17:03:42 10° ESE visible
25 Dec - 18:58:15 10° WSW 19:06:59 40° S 19:21:07 10° ESE visible
25 Dec - 21:11:31 10° WSW 21:21:50 29° SSW 21:36:14 10° SSE visible
25 Dec - 23:30:51 10° WSW 23:36:51 13° SW 23:43:26 10° SSW visible
26 Dec - 15:49:01 10° SSW 15:54:11 25° SSE 16:01:55 10° ESE daylight
26 Dec - 17:59:33 10° WSW 18:07:03 38° S 18:19:24 10° ESE visible
26 Dec - 20:11:58 10° WSW 20:21:23 33° SSW 20:35:29 10° SE visible
26 Dec - 22:27:56 10° WSW 22:36:21 17° SSW 22:46:32 10° S visible
27 Dec - 14:51:40 10° S 14:55:19 17° SSE 15:00:05 10° ESE daylight
27 Dec - 17:01:08 10° SW 17:07:28 34° S 17:17:43 10° ESE visible
27 Dec - 19:12:51 10° WSW 19:21:11 35° S 19:34:18 10° SE visible
27 Dec - 21:27:03 10° WSW 21:35:53 22° SSW 21:47:34 10° SSE visible
